Weather History for Wolf Point, MT

Change the Weather History Date:

Thursday, April 4, 2013

  Actual Average Record
Temperature  
Mean Temperature 38 °F -  
Max Temperature 44 °F 54 °F 73 °F (2004)
Min Temperature 31 °F 25 °F 10 °F (2002)
Degree Days  
Heating Degree Days 27    
Cooling Degree Days 0    
Moisture  
Dew Point 26 °F    
Average Humidity 72    
Maximum Humidity 82    
Minimum Humidity 55    
Precipitation  
Precipitation T in 0.02 in 0.22 in (2001)
Month to date precipitation T 0.08  
Year to date precipitation 0.73 1.06  
Sea Level Pressure  
Sea Level Pressure 30.22 in    
Wind  
Wind Speed 9 mph (ENE)    
Max Wind Speed 20 mph    
Max Gust Speed 17 mph    
Visibility 10 miles    
Events      
T = Trace of Precipitation, MM = Missing Value Source: NWS Daily Summary

Daily Weather History Graph

Daily Weather History Graph

Search for Another Location

Airport:

Trip Planner

Search our weather history database for the weather conditions in past years. The results will help you decide how hot, cold, wet, or windy it might be!

Date:

Astronomy

Apr. 04, 2013 Rise Set
Actual Time 6:33 AM MDT 7:37 PM MDT
Civil Twilight 6:02 AM MDT 8:09 PM MDT
Nautical Twilight 5:24 AM MDT 8:47 PM MDT
Astronomical Twilight 4:43 AM MDT 9:28 PM MDT
Moon 3:27 AM MDT (4/4) 1:34 PM MDT (4/4)
Length of Visible Light 14h 07m
Length of Day
13h 03m
Waning Crescent, 33% of the Moon is Illuminated
Apr 4
Waning Crescent
Apr 10
New
Apr 18
First Quarter
Apr 25
Full
May 2
Last Quarter

Hourly Weather History & Observations

Time (MDT) Temp. Windchill Dew Point Humidity Pressure Visibility Wind Dir Wind Speed Gust Speed Precip Events Conditions
12:53 AM 34.0 °F 28.0 °F 28.0 °F 79% 30.27 in 10.0 mi NE 6.9 mph - N/A   Overcast
1:53 AM 34.0 °F 27.2 °F 26.1 °F 73% 30.27 in 10.0 mi NNE 8.1 mph - N/A   Overcast
2:53 AM 33.1 °F 23.9 °F 25.0 °F 72% 30.28 in 10.0 mi NNE 12.7 mph - N/A   Overcast
3:53 AM 30.9 °F 26.2 °F 26.1 °F 82% 30.30 in 10.0 mi NE 4.6 mph - 0.00 in   Overcast
4:53 AM 30.9 °F - 26.1 °F 82% 30.30 in 9.0 mi Calm Calm - 0.00 in   Overcast
5:53 AM 30.9 °F 27.5 °F 26.1 °F 82% 30.30 in 10.0 mi East 3.5 mph - 0.00 in   Overcast
6:53 AM 30.9 °F 27.5 °F 25.0 °F 79% 30.30 in 10.0 mi East 3.5 mph - 0.00 in   Overcast
7:53 AM 30.9 °F 25.2 °F 25.0 °F 79% 30.30 in 10.0 mi ENE 5.8 mph - 0.00 in   Mostly Cloudy
8:34 AM 32.0 °F 24.8 °F 24.8 °F 75% 30.23 in 10.0 mi ENE 8.1 mph - N/A   Overcast
8:53 AM 32.0 °F 24.2 °F 25.0 °F 75% 30.30 in 10.0 mi ENE 9.2 mph - N/A   Overcast
9:53 AM 33.1 °F 24.9 °F 25.0 °F 72% 30.30 in 10.0 mi East 10.4 mph - N/A   Overcast
10:53 AM 34.0 °F 26.6 °F 25.0 °F 70% 30.30 in 10.0 mi East 9.2 mph - N/A   Overcast
11:53 AM 36.0 °F 29.6 °F 24.1 °F 62% 30.30 in 10.0 mi East 8.1 mph - N/A   Overcast
12:53 PM 37.9 °F 31.5 °F 26.1 °F 62% 30.26 in 10.0 mi East 9.2 mph - N/A   Overcast
1:53 PM 39.9 °F 33.9 °F 27.0 °F 60% 30.23 in 10.0 mi ENE 9.2 mph 17.3 mph N/A   Overcast
2:53 PM 42.1 °F 34.9 °F 27.0 °F 55% 30.20 in 10.0 mi ENE 13.8 mph - N/A   Overcast
3:53 PM 44.1 °F 37.4 °F 28.9 °F 55% 30.18 in 10.0 mi East 13.8 mph - N/A   Clear
5:53 PM 41.0 °F 32.2 °F 28.0 °F 60% 30.14 in 10.0 mi ENE 18.4 mph - N/A   Clear
6:53 PM 37.0 °F 26.7 °F 27.0 °F 67% 30.12 in 10.0 mi ENE 19.6 mph - N/A   Clear
7:53 PM 34.0 °F 25.0 °F 26.1 °F 73% 30.11 in 10.0 mi ENE 12.7 mph - N/A   Clear
8:53 PM 33.1 °F 22.2 °F 26.1 °F 75% 30.09 in 10.0 mi ENE 17.3 mph - N/A   Clear
9:53 PM 32.0 °F 21.6 °F 27.0 °F 82% 30.08 in 10.0 mi East 15.0 mph - N/A   Clear
10:53 PM 33.1 °F 23.9 °F 27.0 °F 78% 30.06 in 10.0 mi ENE 12.7 mph - N/A   Overcast
11:53 PM 33.1 °F 23.4 °F 27.0 °F 78% 30.02 in 10.0 mi East 13.8 mph - N/A   Overcast